Regional Weather Roundup
Issued by NWS

Home | Current Version | Previous Version | Graphics & Text | Print | Product List | Glossary On
Versions: 1 2 3 4 5 6 7 8 9 10 11 12 13 14 15 16 17 18 19 20 21 22 23 24 25 26 27 28 29 30 31 32 33 34 35 36 37 38 39 40 41 42 43 44 45 46 47 48 49 50
000
ASUS45 KBOU 011810
RWRCO

WEATHER ROUNDUP FOR COLORADO
NATIONAL WEATHER SERVICE DENVER/BOULDER CO
1200 PM MDT WED JUL 01 2015

NOTE: "FAIR" INDICATES FEW OR NO CLOUDS BELOW 12000 FEET WITH NO
SIGNIFICANT WEATHER AND/OR OBSTRUCTIONS TO VISIBILITY.

COZ001>005-013-030-031-011900-
...NORTHWEST COLORADO...

CITY           SKY/WX    TMP DP  RH WIND       PRES   REMARKS
CRAIG          CLOUDY    77  51  40 NW6       30.25S
HAYDEN         CLOUDY    72  48  43 W6        30.27R
MEEKER         CLOUDY    75  53  46 S6        30.26S
MOUNT WERNER   NOT AVBL
STEAMBOAT SPGS CLOUDY    74  51  43 SW6       30.28S
WALDEN         MOSUNNY   73  45  35 SE5       30.36F
$$

COZ006>008-011-011900-
...WEST CENTRAL VALLEYS...

CITY           SKY/WX    TMP DP  RH WIND       PRES   REMARKS
GRAND JUNCTION PTSUNNY   86  48  26 S7        30.10S
MONTROSE       PTSUNNY   86  50  28 NW8       30.18S
EAGLE          MOSUNNY   79  46  31 W5        30.26F
RIFLE          PTSUNNY   88  47  24 N5        30.15F
DELTA          PTSUNNY   89  46  21 SW6       30.14F
NUCLA          PTSUNNY   86  46  25 N5        30.22S
$$

COZ017>023-064>068-011900-
...SOUTHWEST COLORADO...

CITY           SKY/WX    TMP DP  RH WIND       PRES   REMARKS
DURANGO        MOSUNNY   83  44  25 SW6       30.24S
CORTEZ         PTSUNNY   86  45  23 CALM      30.17F
PAGOSA SPRINGS MOSUNNY   78  43  28 CALM      30.33S
TELLURIDE      PTSUNNY   76  42  29 W8G16     30.45S
WOLF CREEK PAS NOT AVBL
$$

COZ009-010-012-014-032>034-037-058>063-011900-
...CENTRAL COLORADO...

CITY           SKY/WX    TMP DP  RH WIND       PRES   REMARKS
ASPEN          MOSUNNY   82  46  28 N7        30.32S
BUENA VISTA    PTSUNNY   79  43  27 SE7       30.33F
COPPER MTN     PTSUNNY   64  34  32 W15G25    30.69S
BERTHOUD PASS  CLOUDY    54  45  71 N8        30.74S
COTTONWOOD PAS NOT AVBL
GUNNISON       PTSUNNY   77  46  33 CALM      30.36F
KREMMLING      MOSUNNY   77  43  29 SW7       30.32S
LEADVILLE      MOSUNNY   71  38  29 VRB3      30.48F
MONARCH PASS   PTSUNNY   61  41  48 S3        30.79S
SALIDA         PTSUNNY   79  49  34 SE5       30.37F
SUNLIGHT       PTSUNNY   68  46  45 N5        30.62S
WILKERSON PASS MOSUNNY   64  39  39 S5        30.66R
$$

COZ069>075-011900-
...SAN LUIS VALLEY/SANGRE DE CRISTO MOUNTAINS...

CITY           SKY/WX    TMP DP  RH WIND       PRES   REMARKS
ALAMOSA        MOSUNNY   74  49  41 NE3       30.32S
LA VETA PASS   PTSUNNY   64  45  48 MISG      30.55R
SAGUACHE       MOSUNNY   77  50  38 S5        30.35F
$$

COZ035-036-038>040-011900-
...NORTHERN COLORADO FRONT RANGE...

CITY           SKY/WX    TMP DP  RH WIND       PRES   REMARKS
DENVER INTL AP MOSUNNY   86  50  28 E6        30.16F
DMNS CITY PARK   N/A     85  54  34 SE5G10    30.15F
AURORA         MOSUNNY   83  50  31 E5        30.18F
FRONT RANGE AP MOSUNNY   84  52  32 NE7       30.18S
ERIE MUNI ARPT MOSUNNY   87  47  25 CALM      30.14F
BOULDER MUN AP MOSUNNY   86  52  30 E7        30.15F
CENTENNIAL     MOSUNNY   82  52  35 N6        30.20F
BROOMFIELD     NOT AVBL
FORT COLLINS   MOSUNNY   88  55  33 E5G16     30.13S
LONGMONT       MOSUNNY   89  51  27 E3        30.15S
$$

COZ041-046-047-076>085-087-088-011900-
...PIKES PEAK/PALMER DIVIDE AND SOUTHERN FOOTHILLS...

CITY           SKY/WX    TMP DP  RH WIND       PRES   REMARKS
COLO. SPRINGS  MOSUNNY   84  49  29 E14       30.23R
A. F. ACADEMY  MOSUNNY   82  48  31 NE10      30.24S
ELLICOTT       SUNNY    N/A N/A N/A NE8       30.22S
FALCON         SUNNY     82  49  32 E10G18    30.30R
FORT CARSON    SUNNY     84  53  34 E9        30.20R
LIMON          SUNNY     84  54  35 VRB6G16   30.16S
MONUMENT HILL  SUNNY     77  52  41 NE5       30.31S
TRINIDAD       PTSUNNY   86  49  27 E3        30.17F
$$

COZ042>045-048>051-090-091-011900-
...NORTHEAST COLORADO...

CITY           SKY/WX    TMP DP  RH WIND       PRES   REMARKS
GREELEY ARPT   SUNNY     88  54  31 CALM      30.12S
AKRON          SUNNY     87  57  35 N12G18    30.10S
BURLINGTON     MOSUNNY   91  50  24 NE15G24   30.05S
WRAY           SUNNY     96  47  18 N15G21    30.01S
STERLING       SUNNY     90  59  35 E6          N/A
HOLYOKE        SUNNY     97  46  17 N13G21    30.01S
FORT MORGAN    SUNNY     89  53  29 CALM      30.10S
$$

COZ086-089-092>099-011900-
...SOUTHEAST COLORADO...

CITY           SKY/WX    TMP DP  RH WIND       PRES   REMARKS
PUEBLO         SUNNY     93  49  22 E13G18    30.10S
LA JUNTA       MOSUNNY   93  54  26 VRB7      30.06S
LAMAR          MOSUNNY   93  58  30 N14       30.00S
SPRINGFIELD      N/A     93  51  23 N10G21    30.04F
$$



USA.gov is the U.S. government's official web portal to all federal, state and local government web resources and services.